#timestamp,LO_Frequency,Hit,StdDev 
1594339215.2,286047001.9,N
1594339235.0,286047003.5,P
1594339235.9,286047003.5,Y
1594339255.8,286046998.1,P
1594339275.6,286047001.1,N
1594339295.4,286047002.8,N
1594339315.3,286047000.5,N
1594339335.1,286047002.5,N
1594339355.9,286047002.4,N
1594339375.7,286047000.0,N
1594339395.5,286047004.1,N
1594339415.4,286047002.5,N
1594339435.2,286047002.8,N
1594339455.0,286047001.8,N
1594339455.9,286047001.8,N
1594339475.8,286047003.8,N
1594339495.6,286047003.1,N
1594339515.5,286047004.1,N
1594339535.3,286047003.5,N
1594339555.1,286047001.3,N
1594339575.9,286047001.3,N
1594339595.7,286047001.0,N
1594339615.6,286047001.4,N
1594339635.4,286047001.5,N
1594339655.2,286047000.1,N
1594339675.1,286047000.7,N
1594339676.0,286047000.7,N
1594339695.8,286047001.1,N
1594339715.7,286046999.1,N
1594339737.3,286046997.7,N
1594339755.4,286046999.5,N
1594339775.2,286046999.3,N
1594339795.1,286046997.1,N
1594339796.0,286046997.1,N
1594339815.8,286046997.5,N
1594339835.6,286046997.4,N
1594339855.5,286046997.9,N
1594339875.3,286046997.6,N
1594339895.2,286046999.6,N
1594339915.9,286046997.5,N
1594339935.7,286046997.2,N
1594339955.6,286046995.4,N
1594339975.4,286046997.5,N
1594339995.2,286046995.0,N
1594340015.1,286046996.4,N
1594340016.0,286046996.4,N
1594340035.8,286046996.3,N
1594340055.7,286046996.0,N
1594340075.5,286046993.5,Y
1594340095.3,286046997.7,P
1594340115.2,286046997.1,P
1594340135.0,286046999.2,N
1594340135.9,286046999.2,N
1594340155.8,286046996.9,Y
1594340175.6,286046999.0,P
1594340195.4,286046998.2,P
1594340215.3,286046999.1,N
1594340235.1,286046996.5,Y
1594340255.9,286046998.4,P
1594340275.7,286046998.3,P
1594340295.5,286047000.6,P
1594340315.4,286046998.1,N
1594340335.2,286047000.8,N
1594340355.1,286047001.1,N
1594340356.0,286047001.1,N
1594340375.8,286046998.8,N
1594340395.7,286046998.7,N
1594340415.5,286046999.4,N
1594340435.3,286046999.1,N
1594340455.2,286046998.2,N
1594340475.0,286046998.3,N
1594340475.9,286046998.3,N
1594340495.8,286047001.0,N
1594340515.6,286046998.1,N
1594340535.4,286047000.5,N
1594340555.3,286046999.9,N
1594340575.1,286047000.5,N
1594340595.9,286046998.2,N
1594340615.7,286046998.2,N
1594340635.5,286047001.1,N
1594340655.4,286047002.3,N
1594340675.2,286046999.8,N
1594340695.0,286047000.5,N
1594340695.9,286047000.5,N
1594340715.8,286047001.0,N
1594340735.6,286047001.0,N
1594340755.5,286046998.3,N
1594340775.3,286046998.3,N
1594340795.2,286046998.8,N
1594340815.9,286046998.9,N
1594340835.7,286046999.3,N
1594340855.6,286046999.2,N
1594340875.4,286046999.2,N
1594340895.2,286046999.6,N
1594340915.1,286046996.7,N
1594340916.0,286046996.7,N
1594340935.8,286046997.1,N
1594340955.7,286046997.0,N
1594340975.5,286046998.9,N
1594340995.3,286046998.2,N
1594341015.2,286046998.1,N
1594341035.0,286047001.0,N
1594341035.9,286047001.0,N
1594341055.8,286047000.6,N
1594341075.6,286046998.1,N
1594341095.4,286047001.0,N
1594341115.3,286046999.1,N
1594341135.1,286046998.7,N
1594341155.8,286046998.3,N
1594341175.7,286046999.4,N
1594341195.5,286046996.8,N
1594341215.4,286046997.4,N
1594341235.2,286046997.3,N
1594341255.0,286046999.3,N
1594341255.9,286046999.3,N
1594341275.8,286046999.6,N
1594341295.6,286046999.0,N
1594341315.5,286047000.8,N
1594341335.3,286046999.4,N
1594341355.1,286046998.8,N
1594341375.9,286046998.7,N
1594341395.7,286046998.4,N
1594341415.6,286046998.2,N
1594341435.4,286047000.8,N
1594341455.2,286047001.1,N
1594341475.1,286046999.0,N
1594341476.0,286046999.0,N
1594341495.8,286046996.5,N
1594341515.6,286046999.2,N
1594341535.5,286046999.0,N
1594341555.3,286046999.2,N
1594341575.2,286046999.2,N
1594341595.9,286046996.9,N
1594341615.7,286046999.1,N
1594341635.6,286046999.0,N
1594341655.4,286046998.4,N
1594341675.3,286046998.7,N
1594341695.1,286047001.1,N
1594341696.0,286047001.1,N
1594341715.8,286047000.8,N
1594341735.7,286047000.8,N
1594341755.5,286046998.7,N
1594341775.3,286046998.8,N
1594341795.2,286046998.1,N
1594341815.0,286046998.5,N
1594341815.9,286046998.5,N
1594341835.8,286046998.9,N
1594341855.6,286046998.5,N
1594341875.4,286047000.7,N
1594341895.3,286047001.0,N
1594341915.1,286047001.2,N
1594341935.9,286046998.2,N
1594341955.7,286047001.0,N
1594341975.5,286046998.3,N
1594341995.4,286046998.1,N
1594342015.2,286047000.8,N
1594342035.1,286046998.4,N
1594342036.0,286046998.4,N
1594342055.8,286047000.8,N
1594342075.6,286047001.1,N
1594342095.5,286046998.4,N
1594342115.3,286046999.4,N
1594342135.1,286046996.5,N
1594342155.9,286046996.6,N
1594342175.7,286046996.6,N
1594342195.6,286046997.8,N
1594342215.4,286046996.9,N
1594342235.2,286046998.5,N
1594342255.1,286046998.2,N
1594342256.0,286046998.2,N
1594342275.8,286046996.5,N
1594342295.7,286046999.4,N
1594342315.5,286046999.4,N
1594342335.3,286047000.8,N
1594342355.2,286047001.2,N
1594342375.0,286046998.3,N
1594342375.9,286046998.3,N
1594342395.7,286047000.3,N
1594342415.6,286046998.2,N
1594342435.4,286047000.8,N
1594342455.3,286046998.8,N
1594342475.1,286046999.0,N
1594342495.8,286047001.2,N
1594342515.7,286047000.6,N
1594342535.5,286047001.0,N
1594342555.4,286047000.5,N
1594342575.2,286047000.1,N
1594342595.0,286047002.5,N
1594342595.9,286047002.5,N
1594342615.8,286047002.6,N
1594342635.6,286047000.1,N
1594342655.4,286046999.7,N
1594342675.3,286047002.5,N
1594342695.1,286047002.7,N
1594342715.9,286047001.9,N
1594342735.7,286047003.0,N
1594342755.6,286047006.0,Y
1594342775.4,286047005.2,P
1594342795.2,286047005.1,N
